ARIANE 5 DEB (SYLDA), 41594

Orbit data source: Space-Track

ARIANE 5 DEB (SYLDA), 41594 is space debris in HEO originally from a launch on Sat, 18 Jun 2016 UTC launched from the French Guiana (FRGUI). Debris objects in space refer to the collection of defunct objects orbiting the Earth. Examples of debris include non-operational satellites, rocket bodies, and fragments generated from explosions, collisions, or faulty payload assembly.

Loading next visibility...
Identifier
41594, 2016-039D
Orbit
HEO
Country
Flag of FRFR
Related business
Manufacturer
ADS/Bremen
Mission
Spacecraft
Bus & Motor
SYLDA 5, Unknown motor
Mass
440 kg wet, 440 kg dry
Launch date (UTC)
2016-06-18 (10 years ago)
Launch vehicle
Unknown
Launch site
French Guiana (FRGUI)
Object type
Payload
Rocket body
Debris
Shape & HBR
Cyl, 2.8 m
Radar Cross Section
27.391 m², Large (>1 m²)

Expand to show TLE details & history
Last TLE update: 13 hours ago

TLE from 13 hours ago
0 ARIANE 5 DEB (SYLDA)
1 41594U 16039D   26035.87806858  .00001649  00000-0  17877-2 0  9990
2 41594   6.0158  40.3008 5687769 176.4330 190.7884  4.38734890110748
Epoch: 2026-02-04T21:04Z
TLE epoch observation values (Epoch: 2026-02-04T21:04:25.125Z)
Latitude
-0.00001°
Longitude
-50.81019°
Altitude
18,271.612 km
Speed
2.656 km/s
True Right ascension
02h 41m 19s
True Declination
0° 00' 00"
Sunlit
Object was in daylight at epoch
Visualization orbit readout
Latitude
Unknown
Longitude
Unknown
Altitude
Unknown
Speed
Unknown
Apparent Right ascension
Unknown
Apparent Declination
Unknown
Sunlit
N/A
Visualization observer readout
Local Sidereal Time
11:54:52
Azimuth
Unknown
Elevation
Unknown
Doppler factor
Unknown
Orbital elements
Apogee altitude
18,356.068 km
Perigee altitude
420.765 km
Semi-major axis
15,766.553 km
Eccentricity
0.56878
Inclination
6.0158°
RAAN
40.3008°
Arg. of periapsis
176.433°
True anomaly
183.6118°
Mean anomaly
190.7884°
Eccentric anomaly
186.88295°
Mean motion
1.09632 °/min
Orbital period
328.37 mins
BSTAR
0.0017877
Loading maneuver chart data...
Computing Atmospheric mass density...
Loading historical data...
Loading historical data...
Loading historical data...
Loading historical data...
Loading historical data...
Loading historical data...
Loading historical data...
Other satellites on launch #39 in the year 2016 (2016-06-18 UTC)

Documentation

Showing up to 5 results
|